Time,TemperatureF,DewpointF,PressureIn,WindDirection,WindDirectionDegrees,WindSpeedMPH,WindSpeedGustMPH,Humidity,HourlyPrecipIn,Conditions,Clouds,dailyrainin,SoftwareType,DateUTC
2013-03-16 00:00:00,49.1,40.4,29.62,East,90,0.0,0.0,72,0.00,,,0.02,WUHU216HW,2013-03-16 04:00:00,
2013-03-16 00:05:00,48.7,40.0,29.61,East,90,0.0,0.0,72,0.00,,,0.00,WUHU216HW,2013-03-16 04:05:00,
2013-03-16 00:10:00,48.7,40.0,29.61,East,90,0.0,0.0,72,0.00,,,0.00,WUHU216HW,2013-03-16 04:10:00,
2013-03-16 00:15:00,48.3,39.7,29.61,East,90,0.0,0.0,72,0.00,,,0.00,WUHU216HW,2013-03-16 04:15:00,
2013-03-16 00:20:00,48.0,39.3,29.61,East,90,0.0,0.0,72,0.00,,,0.00,WUHU216HW,2013-03-16 04:20:00,
2013-03-16 00:25:00,48.0,39.3,29.61,East,90,0.0,0.0,72,0.00,,,0.00,WUHU216HW,2013-03-16 04:25:00,
2013-03-16 00:30:00,47.8,39.2,29.61,East,90,0.0,0.0,72,0.00,,,0.00,WUHU216HW,2013-03-16 04:30:00,
2013-03-16 00:35:00,47.4,38.8,29.61,NE,45,0.0,0.0,72,0.00,,,0.00,WUHU216HW,2013-03-16 04:35:00,
2013-03-16 00:40:00,47.1,38.8,29.61,NE,45,0.0,0.0,73,0.00,,,0.00,WUHU216HW,2013-03-16 04:40:00,
2013-03-16 00:45:00,47.1,38.8,29.61,NE,45,0.0,0.0,73,0.00,,,0.00,WUHU216HW,2013-03-16 04:45:00,
2013-03-16 00:50:00,46.7,38.5,29.61,NNE,23,0.0,0.0,73,0.00,,,0.00,WUHU216HW,2013-03-16 04:50:00,
2013-03-16 00:55:00,46.5,38.7,29.61,NNE,23,0.0,0.0,74,0.00,,,0.00,WUHU216HW,2013-03-16 04:55:00,
2013-03-16 01:00:00,46.4,38.5,29.61,NNE,23,0.0,0.0,74,0.00,,,0.00,WUHU216HW,2013-03-16 05:00:00,
2013-03-16 01:05:00,46.2,38.4,29.61,North,0,0.0,0.0,74,0.00,,,0.00,WUHU216HW,2013-03-16 05:05:00,
2013-03-16 01:10:00,46.0,38.2,29.61,North,0,0.0,0.0,74,0.00,,,0.00,WUHU216HW,2013-03-16 05:10:00,
2013-03-16 01:15:00,45.8,38.0,29.60,North,0,0.0,0.0,74,0.00,,,0.00,WUHU216HW,2013-03-16 05:15:00,
2013-03-16 01:20:00,45.5,38.0,29.60,North,0,0.0,0.0,75,0.00,,,0.00,WUHU216HW,2013-03-16 05:20:00,
2013-03-16 01:25:00,45.3,37.8,29.60,North,0,0.0,0.0,75,0.00,,,0.00,WUHU216HW,2013-03-16 05:25:00,
2013-03-16 01:30:00,45.3,37.8,29.60,North,0,0.0,0.0,75,0.00,,,0.00,WUHU216HW,2013-03-16 05:30:00,
2013-03-16 01:35:00,45.1,37.6,29.60,North,0,0.0,0.0,75,0.00,,,0.00,WUHU216HW,2013-03-16 05:35:00,
2013-03-16 01:40:00,44.9,37.4,29.60,North,0,0.0,0.0,75,0.00,,,0.00,WUHU216HW,2013-03-16 05:40:00,
2013-03-16 01:45:00,44.9,37.4,29.60,North,0,0.0,0.0,75,0.00,,,0.00,WUHU216HW,2013-03-16 05:45:00,
2013-03-16 01:50:00,44.7,37.3,29.60,North,0,0.0,0.0,75,0.00,,,0.00,WUHU216HW,2013-03-16 05:50:00,
2013-03-16 01:55:00,44.7,37.3,29.59,North,0,0.0,0.0,75,0.00,,,0.00,WUHU216HW,2013-03-16 05:55:00,
2013-03-16 02:00:00,44.6,37.1,29.59,North,0,0.0,0.0,75,0.00,,,0.00,WUHU216HW,2013-03-16 06:00:00,
2013-03-16 02:05:00,44.4,36.9,29.59,North,0,0.0,0.0,75,0.00,,,0.00,WUHU216HW,2013-03-16 06:05:00,
2013-03-16 02:10:00,44.4,37.2,29.59,North,0,0.0,0.0,76,0.00,,,0.00,WUHU216HW,2013-03-16 06:10:00,
2013-03-16 02:15:00,44.4,37.2,29.59,North,0,0.0,0.0,76,0.00,,,0.00,WUHU216HW,2013-03-16 06:15:00,
2013-03-16 02:20:00,44.4,37.2,29.59,North,0,0.0,0.0,76,0.00,,,0.00,WUHU216HW,2013-03-16 06:20:00,
2013-03-16 02:25:00,44.2,37.1,29.59,North,0,0.0,0.0,76,0.00,,,0.00,WUHU216HW,2013-03-16 06:25:00,
2013-03-16 02:30:00,44.2,37.1,29.59,North,0,0.0,0.0,76,0.00,,,0.00,WUHU216HW,2013-03-16 06:30:00,
2013-03-16 02:35:00,44.2,37.4,29.59,North,0,0.0,0.0,77,0.00,,,0.00,WUHU216HW,2013-03-16 06:35:00,
2013-03-16 02:40:00,44.2,37.4,29.59,North,0,0.0,0.0,77,0.00,,,0.00,WUHU216HW,2013-03-16 06:40:00,
2013-03-16 02:45:00,44.0,37.2,29.59,North,0,0.0,0.0,77,0.00,,,0.00,WUHU216HW,2013-03-16 06:45:00,
2013-03-16 02:50:00,44.0,37.2,29.59,North,0,0.0,0.0,77,0.00,,,0.00,WUHU216HW,2013-03-16 06:50:00,
2013-03-16 02:55:00,43.8,37.1,29.58,North,0,0.0,0.0,77,0.00,,,0.00,WUHU216HW,2013-03-16 06:55:00,
2013-03-16 03:00:00,44.0,37.2,29.58,North,0,0.0,0.0,77,0.00,,,0.00,WUHU216HW,2013-03-16 07:00:00,
2013-03-16 03:05:00,44.0,37.2,29.58,North,0,0.0,0.0,77,0.00,,,0.00,WUHU216HW,2013-03-16 07:05:00,
2013-03-16 03:10:00,43.8,37.1,29.58,North,0,0.0,0.0,77,0.00,,,0.00,WUHU216HW,2013-03-16 07:10:00,
2013-03-16 03:15:00,43.8,37.1,29.58,North,0,0.0,0.0,77,0.00,,,0.00,WUHU216HW,2013-03-16 07:15:00,
2013-03-16 03:20:00,43.8,37.1,29.58,North,0,0.0,0.0,77,0.00,,,0.00,WUHU216HW,2013-03-16 07:20:00,
2013-03-16 03:25:00,43.8,37.1,29.58,North,0,0.0,0.0,77,0.00,,,0.00,WUHU216HW,2013-03-16 07:25:00,
2013-03-16 03:30:00,43.8,37.1,29.57,North,0,0.0,0.0,77,0.00,,,0.00,WUHU216HW,2013-03-16 07:30:00,
2013-03-16 03:35:00,43.8,37.1,29.57,North,0,0.0,0.0,77,0.00,,,0.00,WUHU216HW,2013-03-16 07:35:00,
2013-03-16 03:40:00,43.8,37.1,29.57,North,0,0.0,0.0,77,0.00,,,0.00,WUHU216HW,2013-03-16 07:40:00,
2013-03-16 03:45:00,43.8,37.4,29.57,North,0,0.0,0.0,78,0.00,,,0.00,WUHU216HW,2013-03-16 07:45:00,
2013-03-16 03:50:00,43.7,37.2,29.57,North,0,0.0,0.0,78,0.00,,,0.00,WUHU216HW,2013-03-16 07:50:00,
2013-03-16 03:55:00,43.7,37.2,29.57,North,0,0.0,0.0,78,0.00,,,0.00,WUHU216HW,2013-03-16 07:55:00,
2013-03-16 04:00:00,43.7,37.2,29.57,North,0,0.0,0.0,78,0.00,,,0.00,WUHU216HW,2013-03-16 08:00:00,
2013-03-16 04:05:00,43.5,37.0,29.57,North,0,0.0,0.0,78,0.00,,,0.00,WUHU216HW,2013-03-16 08:05:00,
2013-03-16 04:10:00,43.5,37.0,29.57,North,0,0.0,0.0,78,0.00,,,0.00,WUHU216HW,2013-03-16 08:10:00,
2013-03-16 04:15:00,43.5,37.0,29.56,North,0,0.0,0.0,78,0.00,,,0.00,WUHU216HW,2013-03-16 08:15:00,
2013-03-16 04:20:00,43.5,37.0,29.56,North,0,0.0,0.0,78,0.00,,,0.00,WUHU216HW,2013-03-16 08:20:00,
2013-03-16 04:25:00,43.5,37.0,29.56,North,0,0.0,0.0,78,0.00,,,0.00,WUHU216HW,2013-03-16 08:25:00,
2013-03-16 04:30:00,43.5,37.0,29.56,North,0,0.0,0.0,78,0.00,,,0.00,WUHU216HW,2013-03-16 08:30:00,
2013-03-16 04:35:00,43.5,37.0,29.56,North,0,0.0,0.0,78,0.00,,,0.00,WUHU216HW,2013-03-16 08:35:00,
2013-03-16 04:40:00,43.5,37.0,29.55,North,0,0.0,0.0,78,0.00,,,0.00,WUHU216HW,2013-03-16 08:40:00,
2013-03-16 04:45:00,43.5,37.4,29.55,North,0,0.0,0.0,79,0.00,,,0.00,WUHU216HW,2013-03-16 08:45:00,
2013-03-16 04:50:00,43.5,37.4,29.55,North,0,0.0,0.0,79,0.00,,,0.00,WUHU216HW,2013-03-16 08:50:00,
2013-03-16 04:55:00,43.5,37.4,29.55,North,0,0.0,0.0,79,0.00,,,0.00,WUHU216HW,2013-03-16 08:55:00,
2013-03-16 05:01:00,43.5,37.4,29.55,North,0,0.0,0.0,79,0.00,,,0.00,WUHU216HW,2013-03-16 09:01:00,
2013-03-16 05:06:00,43.5,37.4,29.55,North,0,0.0,0.0,79,0.00,,,0.00,WUHU216HW,2013-03-16 09:06:00,
2013-03-16 05:11:00,43.5,37.7,29.55,WNW,293,0.0,0.0,80,0.00,,,0.00,WUHU216HW,2013-03-16 09:11:00,
2013-03-16 05:16:00,43.5,38.0,29.55,West,270,0.0,0.0,81,0.00,,,0.00,WUHU216HW,2013-03-16 09:16:00,
2013-03-16 05:21:00,43.8,38.4,29.55,WSW,248,0.0,0.0,81,0.00,,,0.00,WUHU216HW,2013-03-16 09:21:00,
2013-03-16 05:26:00,45.3,40.4,29.55,WNW,293,0.0,1.1,83,0.00,,,0.00,WUHU216HW,2013-03-16 09:26:00,
2013-03-16 05:31:00,47.1,42.2,29.55,South,180,0.0,1.1,83,0.00,,,0.00,WUHU216HW,2013-03-16 09:31:00,
2013-03-16 05:36:00,48.7,44.0,29.54,SSE,158,4.2,4.4,84,0.00,,,0.00,WUHU216HW,2013-03-16 09:36:00,
2013-03-16 05:41:00,50.7,45.6,29.54,SSE,158,0.0,4.4,83,0.00,,,0.00,WUHU216HW,2013-03-16 09:41:00,
2013-03-16 05:46:00,51.9,46.9,29.54,SW,225,2.4,4.4,83,0.00,,,0.00,WUHU216HW,2013-03-16 09:46:00,
2013-03-16 05:51:00,53.2,47.9,29.54,SE,135,0.0,4.4,82,0.00,,,0.00,WUHU216HW,2013-03-16 09:51:00,
2013-03-16 05:56:00,54.5,48.7,29.55,WNW,293,2.2,2.4,81,0.00,,,0.00,WUHU216HW,2013-03-16 09:56:00,
2013-03-16 06:01:00,55.2,49.1,29.55,South,180,10.9,10.9,80,0.00,,,0.00,WUHU216HW,2013-03-16 10:01:00,
2013-03-16 06:06:00,55.9,49.4,29.55,SW,225,0.0,10.9,79,0.00,,,0.00,WUHU216HW,2013-03-16 10:06:00,
2013-03-16 06:11:00,56.8,50.0,29.55,West,270,4.6,10.9,78,0.00,,,0.00,WUHU216HW,2013-03-16 10:11:00,
2013-03-16 06:16:00,57.0,50.1,29.55,SSW,203,0.0,4.6,78,0.00,,,0.00,WUHU216HW,2013-03-16 10:16:00,
2013-03-16 06:21:00,57.3,50.1,29.55,South,180,0.0,4.6,77,0.00,,,0.00,WUHU216HW,2013-03-16 10:21:00,
2013-03-16 06:26:00,57.5,50.0,29.55,SSW,203,2.9,5.3,76,0.00,,,0.00,WUHU216HW,2013-03-16 10:26:00,
2013-03-16 06:31:00,57.7,50.1,29.55,WSW,248,0.0,5.3,76,0.00,,,0.00,WUHU216HW,2013-03-16 10:31:00,
2013-03-16 06:36:00,57.9,50.3,29.56,WSW,248,2.6,2.9,76,0.00,,,0.00,WUHU216HW,2013-03-16 10:36:00,
2013-03-16 06:41:00,57.9,50.0,29.56,West,270,0.0,5.8,75,0.00,,,0.00,WUHU216HW,2013-03-16 10:41:00,
2013-03-16 06:46:00,57.9,50.0,29.55,West,270,1.5,5.8,75,0.00,,,0.00,WUHU216HW,2013-03-16 10:46:00,
2013-03-16 06:51:00,57.9,50.0,29.56,West,270,4.9,4.9,75,0.00,,,0.00,WUHU216HW,2013-03-16 10:51:00,
2013-03-16 06:56:00,57.7,49.4,29.56,SW,225,0.0,12.5,74,0.00,,,0.00,WUHU216HW,2013-03-16 10:56:00,
2013-03-16 07:01:00,57.7,49.4,29.56,SSE,158,5.1,12.5,74,0.00,,,0.00,WUHU216HW,2013-03-16 11:01:00,
2013-03-16 07:06:00,57.5,49.2,29.56,SW,225,0.0,5.1,74,0.00,,,0.00,WUHU216HW,2013-03-16 11:06:00,
2013-03-16 07:11:00,57.7,49.4,29.56,West,270,2.0,5.1,74,0.00,,,0.00,WUHU216HW,2013-03-16 11:11:00,
2013-03-16 07:16:00,57.7,49.4,29.56,West,270,2.0,2.0,74,0.00,,,0.00,WUHU216HW,2013-03-16 11:16:00,
2013-03-16 07:21:00,57.7,49.4,29.56,SW,225,0.0,2.0,74,0.00,,,0.00,WUHU216HW,2013-03-16 11:21:00,
2013-03-16 07:26:00,57.5,49.2,29.56,West,270,0.0,2.0,74,0.00,,,0.00,WUHU216HW,2013-03-16 11:26:00,
2013-03-16 07:31:00,57.3,49.1,29.56,West,270,0.0,0.0,74,0.00,,,0.00,WUHU216HW,2013-03-16 11:31:00,
2013-03-16 07:36:00,57.0,48.7,29.55,WSW,248,0.0,0.0,74,0.00,,,0.00,WUHU216HW,2013-03-16 11:36:00,
2013-03-16 07:41:00,56.8,48.5,29.56,WSW,248,0.0,0.0,74,0.00,,,0.00,WUHU216HW,2013-03-16 11:41:00,
2013-03-16 07:46:00,56.6,48.3,29.56,West,270,0.0,2.6,74,0.00,,,0.00,WUHU216HW,2013-03-16 11:46:00,
2013-03-16 07:51:00,56.4,48.2,29.57,South,180,0.0,2.6,74,0.00,,,0.00,WUHU216HW,2013-03-16 11:51:00,
2013-03-16 07:56:00,56.3,48.0,29.56,West,270,0.0,0.0,74,0.00,,,0.00,WUHU216HW,2013-03-16 11:56:00,
2013-03-16 08:01:00,56.3,48.0,29.56,SW,225,0.0,0.0,74,0.00,,,0.00,WUHU216HW,2013-03-16 12:01:00,
2013-03-16 08:06:00,56.1,47.8,29.56,NW,315,0.0,0.0,74,0.00,,,0.00,WUHU216HW,2013-03-16 12:06:00,
2013-03-16 08:11:00,55.9,47.7,29.57,West,270,0.0,5.5,74,0.00,,,0.00,WUHU216HW,2013-03-16 12:11:00,
2013-03-16 08:16:00,55.9,47.7,29.56,SW,225,0.0,5.5,74,0.00,,,0.00,WUHU216HW,2013-03-16 12:16:00,
2013-03-16 08:21:00,55.9,48.0,29.57,West,270,2.9,2.9,75,0.00,,,0.00,WUHU216HW,2013-03-16 12:21:00,
2013-03-16 08:26:00,56.1,47.8,29.57,West,270,3.1,3.1,74,0.00,,,0.00,WUHU216HW,2013-03-16 12:26:00,
2013-03-16 08:32:00,56.3,48.0,29.57,NW,315,0.0,3.1,74,0.00,,,0.00,WUHU216HW,2013-03-16 12:32:00,
2013-03-16 08:37:00,56.3,48.0,29.57,West,270,1.7,4.9,74,0.00,,,0.00,WUHU216HW,2013-03-16 12:37:00,
2013-03-16 08:42:00,56.4,48.2,29.57,SW,225,2.0,4.9,74,0.00,,,0.00,WUHU216HW,2013-03-16 12:42:00,
2013-03-16 08:47:00,56.4,48.2,29.57,West,270,2.0,4.0,74,0.00,,,0.00,WUHU216HW,2013-03-16 12:47:00,
2013-03-16 08:52:00,56.8,48.5,29.57,WNW,293,0.0,5.8,74,0.00,,,0.00,WUHU216HW,2013-03-16 12:52:00,
2013-03-16 08:57:00,57.0,48.3,29.57,WSW,248,3.1,5.8,73,0.00,,,0.00,WUHU216HW,2013-03-16 12:57:00,
2013-03-16 09:02:00,57.0,48.7,29.57,WSW,248,0.0,7.6,74,0.00,,,0.00,WUHU216HW,2013-03-16 13:02:00,
2013-03-16 09:07:00,57.3,48.7,29.58,South,180,0.0,7.6,73,0.00,,,0.00,WUHU216HW,2013-03-16 13:07:00,
2013-03-16 09:12:00,57.3,48.7,29.58,WNW,293,8.5,8.5,73,0.00,,,0.00,WUHU216HW,2013-03-16 13:12:00,
2013-03-16 09:17:00,57.5,48.9,29.58,SSE,158,0.0,8.5,73,0.00,,,0.00,WUHU216HW,2013-03-16 13:17:00,
2013-03-16 09:22:00,57.7,48.7,29.58,SW,225,0.0,1.7,72,0.00,,,0.00,WUHU216HW,2013-03-16 13:22:00,
2013-03-16 09:27:00,57.9,48.9,29.58,NW,315,0.0,0.0,72,0.00,,,0.00,WUHU216HW,2013-03-16 13:27:00,
2013-03-16 09:32:00,58.2,49.2,29.58,NE,45,0.0,0.0,72,0.00,,,0.00,WUHU216HW,2013-03-16 13:32:00,
2013-03-16 09:37:00,58.4,49.4,29.59,West,270,0.0,6.9,72,0.00,,,0.00,WUHU216HW,2013-03-16 13:37:00,
2013-03-16 09:42:00,58.6,49.6,29.59,West,270,1.1,6.9,72,0.00,,,0.00,WUHU216HW,2013-03-16 13:42:00,
2013-03-16 09:47:00,58.8,49.4,29.59,South,180,3.3,3.3,71,0.00,,,0.00,WUHU216HW,2013-03-16 13:47:00,
2013-03-16 09:52:00,58.8,49.1,29.59,West,270,9.8,9.8,70,0.00,,,0.00,WUHU216HW,2013-03-16 13:52:00,
2013-03-16 09:57:00,58.8,49.1,29.59,West,270,0.0,9.8,70,0.00,,,0.00,WUHU216HW,2013-03-16 13:57:00,
2013-03-16 10:02:00,59.1,49.4,29.59,SW,225,6.0,9.8,70,0.00,,,0.00,WUHU216HW,2013-03-16 14:02:00,
2013-03-16 10:07:00,59.3,49.2,29.60,West,270,15.6,15.6,69,0.00,,,0.00,WUHU216HW,2013-03-16 14:07:00,
2013-03-16 10:12:00,59.3,49.2,29.60,WSW,248,0.0,15.6,69,0.00,,,0.00,WUHU216HW,2013-03-16 14:12:00,
2013-03-16 10:17:00,59.3,49.2,29.61,WSW,248,0.0,15.6,69,0.00,,,0.00,WUHU216HW,2013-03-16 14:17:00,
2013-03-16 10:22:00,59.5,49.4,29.61,West,270,3.5,12.0,69,0.00,,,0.00,WUHU216HW,2013-03-16 14:22:00,
2013-03-16 10:27:00,59.5,48.9,29.61,SW,225,0.0,16.1,68,0.00,,,0.00,WUHU216HW,2013-03-16 14:27:00,
2013-03-16 10:32:00,59.5,49.4,29.62,WSW,248,0.0,16.1,69,0.00,,,0.00,WUHU216HW,2013-03-16 14:32:00,
2013-03-16 10:37:00,59.5,48.9,29.62,West,270,13.1,13.1,68,0.00,,,0.00,WUHU216HW,2013-03-16 14:37:00,
2013-03-16 10:42:00,59.5,48.9,29.63,WNW,293,0.0,13.1,68,0.00,,,0.00,WUHU216HW,2013-03-16 14:42:00,
2013-03-16 10:47:00,59.7,49.1,29.63,NW,315,6.0,13.1,68,0.00,,,0.00,WUHU216HW,2013-03-16 14:47:00,
2013-03-16 10:52:00,59.7,49.1,29.64,NW,315,1.5,12.7,68,0.00,,,0.00,WUHU216HW,2013-03-16 14:52:00,
2013-03-16 10:57:00,59.7,49.1,29.64,North,0,6.0,8.2,68,0.00,,,0.00,WUHU216HW,2013-03-16 14:57:00,
2013-03-16 11:02:00,59.5,48.9,29.64,WNW,293,8.5,8.5,68,0.00,,,0.00,WUHU216HW,2013-03-16 15:02:00,
2013-03-16 11:07:00,59.7,48.7,29.64,NNE,23,0.0,8.5,67,0.00,,,0.00,WUHU216HW,2013-03-16 15:07:00,
2013-03-16 11:12:00,59.7,48.7,29.65,West,270,4.6,8.5,67,0.00,,,0.00,WUHU216HW,2013-03-16 15:12:00,
2013-03-16 11:17:00,59.5,48.5,29.65,WNW,293,6.0,6.0,66,0.00,,,0.00,WUHU216HW,2013-03-16 15:17:00,
2013-03-16 11:22:00,59.3,47.9,29.65,NW,315,0.0,6.0,66,0.00,,,0.00,WUHU216HW,2013-03-16 15:22:00,
2013-03-16 11:27:00,59.1,47.8,29.66,North,0,1.1,11.1,66,0.00,,,0.00,WUHU216HW,2013-03-16 15:27:00,
2013-03-16 11:32:00,59.3,48.3,29.66,WNW,293,10.5,11.1,67,0.00,,,0.00,WUHU216HW,2013-03-16 15:32:00,
2013-03-16 11:37:00,59.1,47.3,29.67,WNW,293,9.1,10.5,65,0.00,,,0.00,WUHU216HW,2013-03-16 15:37:00,
2013-03-16 11:42:00,58.8,47.0,29.67,NNW,338,1.3,10.5,65,0.00,,,0.00,WUHU216HW,2013-03-16 15:42:00,
2013-03-16 11:47:00,58.8,47.0,29.67,WNW,293,6.4,12.5,65,0.00,,,0.00,WUHU216HW,2013-03-16 15:47:00,
2013-03-16 11:52:00,58.6,46.8,29.67,WNW,293,0.0,12.5,65,0.00,,,0.00,WUHU216HW,2013-03-16 15:52:00,
2013-03-16 11:57:00,57.9,46.1,29.68,WNW,293,8.0,8.9,65,0.00,,,0.00,WUHU216HW,2013-03-16 15:57:00,
2013-03-16 12:02:00,57.7,45.6,29.68,West,270,5.3,9.1,64,0.00,,,0.00,WUHU216HW,2013-03-16 16:02:00,
2013-03-16 12:08:00,57.5,45.8,29.68,NW,315,6.0,9.1,65,0.00,,,0.00,WUHU216HW,2013-03-16 16:08:00,
2013-03-16 12:13:00,57.7,46.0,29.68,West,270,10.7,10.7,65,0.00,,,0.00,WUHU216HW,2013-03-16 16:13:00,
2013-03-16 12:18:00,57.9,46.1,29.69,ENE,68,1.7,10.7,65,0.00,,,0.00,WUHU216HW,2013-03-16 16:18:00,
2013-03-16 12:23:00,57.9,45.7,29.70,WNW,293,8.2,10.7,64,0.00,,,0.00,WUHU216HW,2013-03-16 16:23:00,
2013-03-16 12:28:00,57.7,45.6,29.70,WNW,293,10.0,10.0,64,0.00,,,0.00,WUHU216HW,2013-03-16 16:28:00,
2013-03-16 12:33:00,57.7,45.6,29.70,WNW,293,0.0,10.0,64,0.00,,,0.00,WUHU216HW,2013-03-16 16:33:00,
2013-03-16 12:38:00,57.9,45.7,29.70,WSW,248,6.0,10.9,64,0.00,,,0.00,WUHU216HW,2013-03-16 16:38:00,
2013-03-16 12:43:00,57.5,45.0,29.70,NW,315,13.1,13.1,63,0.00,,,0.00,WUHU216HW,2013-03-16 16:43:00,
2013-03-16 12:48:00,57.3,44.8,29.71,West,270,0.0,13.1,63,0.00,,,0.00,WUHU216HW,2013-03-16 16:48:00,
2013-03-16 12:53:00,57.5,45.0,29.71,West,270,0.0,13.1,63,0.00,,,0.00,WUHU216HW,2013-03-16 16:53:00,
2013-03-16 12:58:00,57.5,45.0,29.71,WNW,293,4.0,6.7,63,0.00,,,0.00,WUHU216HW,2013-03-16 16:58:00,
2013-03-16 13:03:00,57.7,45.1,29.72,NW,315,0.0,6.7,63,0.00,,,0.00,WUHU216HW,2013-03-16 17:03:00,
2013-03-16 13:08:00,57.9,45.3,29.72,WNW,293,11.1,11.1,63,0.00,,,0.00,WUHU216HW,2013-03-16 17:08:00,
2013-03-16 13:13:00,57.7,45.1,29.71,SW,225,0.0,11.1,63,0.00,,,0.00,WUHU216HW,2013-03-16 17:13:00,
2013-03-16 13:18:00,57.9,45.3,29.72,WNW,293,9.8,9.8,63,0.00,,,0.00,WUHU216HW,2013-03-16 17:18:00,
2013-03-16 13:23:00,57.9,44.9,29.72,NW,315,1.5,10.2,62,0.00,,,0.00,WUHU216HW,2013-03-16 17:23:00,
2013-03-16 13:28:00,57.7,44.7,29.73,West,270,8.5,10.2,62,0.00,,,0.00,WUHU216HW,2013-03-16 17:28:00,
2013-03-16 13:33:00,57.7,44.7,29.73,NNW,338,3.8,12.0,62,0.00,,,0.00,WUHU216HW,2013-03-16 17:33:00,
2013-03-16 13:38:00,57.7,44.7,29.73,WNW,293,4.0,12.0,62,0.00,,,0.00,WUHU216HW,2013-03-16 17:38:00,
2013-03-16 13:43:00,57.9,44.9,29.74,West,270,10.5,10.5,62,0.00,,,0.00,WUHU216HW,2013-03-16 17:43:00,
2013-03-16 13:48:00,57.9,44.9,29.75,West,270,5.5,10.5,62,0.00,,,0.00,WUHU216HW,2013-03-16 17:48:00,
2013-03-16 13:53:00,57.7,44.7,29.75,NNE,23,5.8,10.5,62,0.00,,,0.00,WUHU216HW,2013-03-16 17:53:00,
2013-03-16 13:58:00,57.7,44.7,29.75,NW,315,0.0,12.0,62,0.00,,,0.00,WUHU216HW,2013-03-16 17:58:00,
2013-03-16 14:03:00,57.7,44.4,29.75,NW,315,0.6,12.0,61,0.00,,,0.00,WUHU216HW,2013-03-16 18:03:00,
2013-03-16 14:08:00,57.3,44.4,29.75,NNW,338,10.7,10.7,62,0.00,,,0.00,WUHU216HW,2013-03-16 18:08:00,
2013-03-16 14:13:00,57.3,44.0,29.76,North,0,10.7,10.7,61,0.00,,,0.00,WUHU216HW,2013-03-16 18:13:00,
2013-03-16 14:18:00,57.3,44.4,29.76,SW,225,0.0,10.7,62,0.00,,,0.00,WUHU216HW,2013-03-16 18:18:00,
2013-03-16 14:23:00,57.7,44.7,29.76,NNW,338,15.4,15.4,62,0.00,,,0.00,WUHU216HW,2013-03-16 18:23:00,
2013-03-16 14:28:00,57.7,44.4,29.77,NNW,338,0.0,15.4,61,0.00,,,0.00,WUHU216HW,2013-03-16 18:28:00,
2013-03-16 14:33:00,57.9,44.5,29.76,NNE,23,5.8,13.4,61,0.00,,,0.00,WUHU216HW,2013-03-16 18:33:00,
2013-03-16 14:38:00,58.1,44.7,29.76,NE,45,9.8,11.1,61,0.00,,,0.00,WUHU216HW,2013-03-16 18:38:00,
2013-03-16 14:43:00,58.2,44.4,29.76,West,270,0.0,11.1,60,0.00,,,0.00,WUHU216HW,2013-03-16 18:43:00,
2013-03-16 14:48:00,58.2,44.4,29.76,NE,45,5.8,7.6,60,0.00,,,0.00,WUHU216HW,2013-03-16 18:48:00,
2013-03-16 14:53:00,58.2,44.4,29.77,North,0,5.5,13.4,60,0.00,,,0.00,WUHU216HW,2013-03-16 18:53:00,
2013-03-16 14:58:00,57.5,43.3,29.77,NNW,338,6.7,15.4,59,0.00,,,0.00,WUHU216HW,2013-03-16 18:58:00,
2013-03-16 15:03:00,57.2,43.5,29.77,NNW,338,0.0,15.4,60,0.00,,,0.00,WUHU216HW,2013-03-16 19:03:00,
2013-03-16 15:08:00,57.3,43.6,29.77,NNE,23,5.3,6.7,60,0.00,,,0.00,WUHU216HW,2013-03-16 19:08:00,
2013-03-16 15:13:00,57.2,43.5,29.77,NE,45,7.1,7.1,60,0.00,,,0.00,WUHU216HW,2013-03-16 19:13:00,
2013-03-16 15:18:00,57.0,43.3,29.78,NNE,23,8.5,8.5,60,0.00,,,0.00,WUHU216HW,2013-03-16 19:18:00,
2013-03-16 15:23:00,56.8,43.1,29.78,North,0,2.2,10.0,60,0.00,,,0.00,WUHU216HW,2013-03-16 19:23:00,
2013-03-16 15:28:00,56.3,42.6,29.78,NNE,23,10.9,10.9,60,0.00,,,0.00,WUHU216HW,2013-03-16 19:28:00,
2013-03-16 15:33:00,56.1,42.8,29.78,SW,225,0.6,10.9,61,0.00,,,0.00,WUHU216HW,2013-03-16 19:33:00,
2013-03-16 15:38:00,55.9,42.6,29.78,NNE,23,6.9,10.9,61,0.00,,,0.00,WUHU216HW,2013-03-16 19:38:00,
2013-03-16 15:43:00,55.7,42.4,29.78,NNE,23,6.4,6.9,61,0.00,,,0.00,WUHU216HW,2013-03-16 19:43:00,
2013-03-16 15:48:00,55.4,42.1,29.79,North,0,6.4,6.4,61,0.00,,,0.00,WUHU216HW,2013-03-16 19:48:00,
2013-03-16 15:53:00,55.2,41.5,29.79,NNW,338,10.2,10.2,60,0.00,,,0.00,WUHU216HW,2013-03-16 19:53:00,
2013-03-16 15:58:00,54.6,41.0,29.80,WNW,293,10.7,10.7,60,0.00,,,0.00,WUHU216HW,2013-03-16 19:58:00,
2013-03-16 16:03:00,54.1,40.9,29.79,NNE,23,7.8,10.7,61,0.00,,,0.00,WUHU216HW,2013-03-16 20:03:00,
2013-03-16 16:08:00,53.7,40.6,29.80,NNW,338,8.0,10.7,61,0.00,,,0.00,WUHU216HW,2013-03-16 20:08:00,
2013-03-16 16:13:00,53.4,40.7,29.80,NNE,23,3.8,8.0,62,0.00,,,0.00,WUHU216HW,2013-03-16 20:13:00,
2013-03-16 16:18:00,53.2,40.5,29.80,NW,315,13.1,13.1,62,0.00,,,0.00,WUHU216HW,2013-03-16 20:18:00,
2013-03-16 16:23:00,53.0,40.3,29.80,NNE,23,4.0,13.1,62,0.00,,,0.00,WUHU216HW,2013-03-16 20:23:00,
2013-03-16 16:28:00,52.5,39.8,29.80,NNW,338,9.8,14.9,62,0.00,,,0.00,WUHU216HW,2013-03-16 20:28:00,
2013-03-16 16:34:00,52.3,40.0,29.81,NNW,338,3.5,14.9,63,0.00,,,0.00,WUHU216HW,2013-03-16 20:34:00,
2013-03-16 16:39:00,51.8,39.5,29.81,North,0,5.5,9.3,63,0.00,,,0.00,WUHU216HW,2013-03-16 20:39:00,
2013-03-16 16:44:00,51.6,39.3,29.82,NNE,23,5.5,9.1,63,0.00,,,0.00,WUHU216HW,2013-03-16 20:44:00,
2013-03-16 16:49:00,51.0,39.0,29.82,NNW,338,2.9,5.8,63,0.00,,,0.00,WUHU216HW,2013-03-16 20:49:00,
2013-03-16 16:54:00,50.9,38.6,29.82,West,270,0.0,5.8,63,0.00,,,0.00,WUHU216HW,2013-03-16 20:54:00,
2013-03-16 16:59:00,50.7,38.5,29.82,WNW,293,0.0,2.9,63,0.00,,,0.00,WUHU216HW,2013-03-16 20:59:00,
2013-03-16 17:04:00,50.7,38.7,29.83,WNW,293,4.9,4.9,64,0.00,,,0.00,WUHU216HW,2013-03-16 21:04:00,
2013-03-16 17:09:00,50.3,38.5,29.83,NNE,23,4.6,9.8,64,0.00,,,0.00,WUHU216HW,2013-03-16 21:09:00,
2013-03-16 17:14:00,50.1,38.4,29.84,NW,315,8.7,9.8,64,0.00,,,0.00,WUHU216HW,2013-03-16 21:14:00,
2013-03-16 17:19:00,50.1,38.4,29.85,West,270,0.0,10.2,64,0.00,,,0.00,WUHU216HW,2013-03-16 21:19:00,
2013-03-16 17:24:00,49.8,38.4,29.85,NW,315,1.1,10.2,65,0.00,,,0.00,WUHU216HW,2013-03-16 21:24:00,
2013-03-16 17:29:00,49.6,38.3,29.85,WSW,248,9.1,9.1,65,0.00,,,0.00,WUHU216HW,2013-03-16 21:29:00,
2013-03-16 17:34:00,49.2,38.3,29.86,West,270,5.1,9.1,65,0.00,,,0.00,WUHU216HW,2013-03-16 21:34:00,
2013-03-16 17:39:00,49.1,37.7,29.85,WNW,293,6.2,6.9,65,0.00,,,0.00,WUHU216HW,2013-03-16 21:39:00,
2013-03-16 17:44:00,48.9,38.0,29.84,NW,315,7.8,7.8,66,0.00,,,0.00,WUHU216HW,2013-03-16 21:44:00,
2013-03-16 17:49:00,48.9,37.8,29.84,West,270,1.3,7.8,66,0.00,,,0.00,WUHU216HW,2013-03-16 21:49:00,
2013-03-16 17:54:00,48.7,37.8,29.84,NW,315,5.1,10.7,66,0.00,,,0.00,WUHU216HW,2013-03-16 21:54:00,
2013-03-16 17:59:00,48.7,37.8,29.84,West,270,3.1,10.7,66,0.00,,,0.00,WUHU216HW,2013-03-16 21:59:00,
2013-03-16 18:04:00,48.5,37.6,29.84,NE,45,0.0,9.8,66,0.00,,,0.00,WUHU216HW,2013-03-16 22:04:00,
2013-03-16 18:09:00,48.5,37.6,29.84,North,0,2.0,9.8,66,0.00,,,0.00,WUHU216HW,2013-03-16 22:09:00,
2013-03-16 18:14:00,48.7,38.2,29.84,NNW,338,0.0,3.1,67,0.00,,,0.00,WUHU216HW,2013-03-16 22:14:00,
2013-03-16 18:19:00,48.3,37.8,29.85,North,0,3.5,7.6,67,0.00,,,0.00,WUHU216HW,2013-03-16 22:19:00,
2013-03-16 18:24:00,48.0,37.5,29.85,NE,45,0.0,7.6,67,0.00,,,0.00,WUHU216HW,2013-03-16 22:24:00,
2013-03-16 18:29:00,47.8,37.3,29.85,NNW,338,6.0,6.0,67,0.00,,,0.00,WUHU216HW,2013-03-16 22:29:00,
2013-03-16 18:34:00,47.3,36.8,29.85,North,0,1.5,6.0,67,0.00,,,0.00,WUHU216HW,2013-03-16 22:34:00,
2013-03-16 18:39:00,47.1,36.6,29.85,North,0,3.5,3.5,67,0.00,,,0.00,WUHU216HW,2013-03-16 22:39:00,
2013-03-16 18:44:00,46.9,36.5,29.85,North,0,7.6,7.6,67,0.00,,,0.00,WUHU216HW,2013-03-16 22:44:00,
2013-03-16 18:49:00,46.7,36.1,29.85,NNE,23,0.0,7.6,67,0.00,,,0.00,WUHU216HW,2013-03-16 22:49:00,
2013-03-16 18:54:00,46.2,36.2,29.85,NNE,23,5.8,7.8,68,0.00,,,0.00,WUHU216HW,2013-03-16 22:54:00,
2013-03-16 18:59:00,45.6,35.7,29.85,NNE,23,0.0,7.8,68,0.00,,,0.00,WUHU216HW,2013-03-16 22:59:00,
2013-03-16 19:04:00,45.5,35.3,29.85,NE,45,5.3,6.4,68,0.00,,,0.00,WUHU216HW,2013-03-16 23:04:00,
2013-03-16 19:09:00,45.3,35.3,29.86,NNE,23,0.0,5.3,68,0.00,,,0.00,WUHU216HW,2013-03-16 23:09:00,
2013-03-16 19:14:00,45.1,35.1,29.86,North,0,3.5,7.1,68,0.00,,,0.00,WUHU216HW,2013-03-16 23:14:00,
2013-03-16 19:19:00,44.9,35.3,29.86,ENE,68,3.3,7.1,69,0.00,,,0.00,WUHU216HW,2013-03-16 23:19:00,
2013-03-16 19:24:00,44.9,35.3,29.86,NNW,338,5.5,5.8,69,0.00,,,0.00,WUHU216HW,2013-03-16 23:24:00,
2013-03-16 19:29:00,44.6,35.0,29.86,North,0,3.3,6.0,69,0.00,,,0.00,WUHU216HW,2013-03-16 23:29:00,
2013-03-16 19:34:00,44.4,34.8,29.86,ENE,68,2.6,6.0,69,0.00,,,0.00,WUHU216HW,2013-03-16 23:34:00,
2013-03-16 19:39:00,44.2,34.7,29.86,North,0,4.2,6.0,69,0.00,,,0.00,WUHU216HW,2013-03-16 23:39:00,
2013-03-16 19:44:00,44.0,34.5,29.86,NNW,338,4.6,4.6,69,0.00,,,0.00,WUHU216HW,2013-03-16 23:44:00,
2013-03-16 19:49:00,43.8,34.7,29.87,NNE,23,4.4,4.6,70,0.00,,,0.00,WUHU216HW,2013-03-16 23:49:00,
2013-03-16 19:54:00,43.8,34.7,29.88,NNE,23,1.3,4.4,70,0.00,,,0.00,WUHU216HW,2013-03-16 23:54:00,
2013-03-16 19:59:00,43.8,34.7,29.88,NNW,338,0.0,4.4,70,0.00,,,0.00,WUHU216HW,2013-03-16 23:59:00,
2013-03-16 20:04:00,43.8,34.7,29.88,North,0,0.0,0.0,70,0.00,,,0.00,WUHU216HW,2013-03-17 00:04:00,
2013-03-16 20:09:00,43.8,34.7,29.89,NNW,338,0.0,0.0,70,0.00,,,0.00,WUHU216HW,2013-03-17 00:09:00,
2013-03-16 20:14:00,43.8,34.7,29.88,NW,315,0.0,0.0,70,0.00,,,0.00,WUHU216HW,2013-03-17 00:14:00,
2013-03-16 20:19:00,43.7,34.6,29.89,West,270,0.0,3.3,70,0.00,,,0.00,WUHU216HW,2013-03-17 00:19:00,
2013-03-16 20:24:00,43.7,34.6,29.90,NW,315,7.8,7.8,70,0.00,,,0.00,WUHU216HW,2013-03-17 00:24:00,
2013-03-16 20:29:00,43.5,34.4,29.90,NW,315,0.0,7.8,70,0.00,,,0.00,WUHU216HW,2013-03-17 00:29:00,
2013-03-16 20:34:00,43.5,34.4,29.90,WNW,293,0.4,7.8,70,0.00,,,0.00,WUHU216HW,2013-03-17 00:34:00,
2013-03-16 20:39:00,43.5,34.4,29.90,West,270,0.0,0.4,70,0.00,,,0.00,WUHU216HW,2013-03-17 00:39:00,
2013-03-16 20:44:00,43.5,34.4,29.91,West,270,0.0,1.5,70,0.00,,,0.00,WUHU216HW,2013-03-17 00:44:00,
2013-03-16 20:49:00,43.3,33.8,29.91,WNW,293,2.4,3.8,69,0.00,,,0.00,WUHU216HW,2013-03-17 00:49:00,
2013-03-16 20:54:00,42.9,33.5,29.92,NW,315,0.0,3.8,69,0.00,,,0.00,WUHU216HW,2013-03-17 00:54:00,
2013-03-16 20:59:00,42.9,33.9,29.93,NNW,338,1.3,2.4,70,0.00,,,0.00,WUHU216HW,2013-03-17 00:59:00,
2013-03-16 21:04:00,42.9,33.9,29.93,NNW,338,0.0,3.5,70,0.00,,,0.00,WUHU216HW,2013-03-17 01:04:00,
2013-03-16 21:09:00,42.9,33.9,29.93,WNW,293,0.0,3.5,70,0.00,,,0.00,WUHU216HW,2013-03-17 01:09:00,
2013-03-16 21:14:00,42.9,33.9,29.93,NW,315,2.2,4.4,70,0.00,,,0.00,WUHU216HW,2013-03-17 01:14:00,
2013-03-16 21:19:00,42.9,33.9,29.93,West,270,0.0,10.9,70,0.00,,,0.00,WUHU216HW,2013-03-17 01:19:00,
2013-03-16 21:24:00,42.6,33.6,29.93,North,0,0.0,10.9,70,0.00,,,0.00,WUHU216HW,2013-03-17 01:24:00,
2013-03-16 21:29:00,42.6,33.6,29.93,NNW,338,0.0,3.1,70,0.00,,,0.00,WUHU216HW,2013-03-17 01:29:00,
2013-03-16 21:34:00,42.6,33.6,29.93,NNE,23,4.0,4.0,70,0.00,,,0.00,WUHU216HW,2013-03-17 01:34:00,
2013-03-16 21:39:00,42.6,33.6,29.93,NW,315,0.0,4.0,70,0.00,,,0.00,WUHU216HW,2013-03-17 01:39:00,
2013-03-16 21:44:00,42.6,33.6,29.93,NNW,338,4.2,4.2,70,0.00,,,0.00,WUHU216HW,2013-03-17 01:44:00,
2013-03-16 21:49:00,42.4,33.4,29.93,NNE,23,6.9,6.9,70,0.00,,,0.00,WUHU216HW,2013-03-17 01:49:00,
2013-03-16 21:54:00,42.4,33.4,29.93,NNE,23,0.8,6.9,70,0.00,,,0.00,WUHU216HW,2013-03-17 01:54:00,
2013-03-16 21:59:00,42.0,33.0,29.93,NNE,23,0.0,6.9,70,0.00,,,0.00,WUHU216HW,2013-03-17 01:59:00,
2013-03-16 22:04:00,42.0,33.0,29.93,North,0,0.2,2.4,70,0.00,,,0.00,WUHU216HW,2013-03-17 02:04:00,
2013-03-16 22:09:00,42.0,33.0,29.93,NNE,23,1.3,1.3,70,0.00,,,0.00,WUHU216HW,2013-03-17 02:09:00,
2013-03-16 22:14:00,42.0,33.4,29.93,NNE,23,6.4,6.4,71,0.00,,,0.00,WUHU216HW,2013-03-17 02:14:00,
2013-03-16 22:19:00,41.9,33.2,29.93,NE,45,6.2,6.4,71,0.00,,,0.00,WUHU216HW,2013-03-17 02:19:00,
2013-03-16 22:24:00,41.7,33.0,29.93,North,0,2.6,6.2,71,0.00,,,0.00,WUHU216HW,2013-03-17 02:24:00,
2013-03-16 22:29:00,41.5,32.8,29.93,North,0,1.7,6.2,71,0.00,,,0.00,WUHU216HW,2013-03-17 02:29:00,
2013-03-16 22:34:00,41.5,32.8,29.93,WNW,293,2.2,5.3,71,0.00,,,0.00,WUHU216HW,2013-03-17 02:34:00,
2013-03-16 22:39:00,41.5,32.8,29.93,North,0,2.4,5.3,71,0.00,,,0.00,WUHU216HW,2013-03-17 02:39:00,
2013-03-16 22:44:00,41.5,32.8,29.93,NW,315,4.2,4.2,71,0.00,,,0.00,WUHU216HW,2013-03-17 02:44:00,
2013-03-16 22:49:00,41.3,32.6,29.93,NNE,23,0.2,4.2,71,0.00,,,0.00,WUHU216HW,2013-03-17 02:49:00,
2013-03-16 22:54:00,41.1,32.5,29.94,NW,315,0.0,6.0,71,0.00,,,0.00,WUHU216HW,2013-03-17 02:54:00,
2013-03-16 22:59:00,41.1,32.5,29.94,NNW,338,0.0,6.0,71,0.00,,,0.00,WUHU216HW,2013-03-17 02:59:00,
2013-03-16 23:04:00,41.1,32.5,29.93,NNW,338,0.0,6.2,71,0.00,,,0.00,WUHU216HW,2013-03-17 03:04:00,
2013-03-16 23:09:00,41.0,32.3,29.94,NNW,338,0.0,6.2,71,0.00,,,0.00,WUHU216HW,2013-03-17 03:09:00,
2013-03-16 23:14:00,40.8,32.1,29.93,NW,315,0.0,6.4,71,0.00,,,0.00,WUHU216HW,2013-03-17 03:14:00,
2013-03-16 23:19:00,40.6,31.9,29.94,North,0,0.0,6.4,71,0.00,,,0.00,WUHU216HW,2013-03-17 03:19:00,
2013-03-16 23:24:00,40.6,31.9,29.94,North,0,5.1,5.1,71,0.00,,,0.00,WUHU216HW,2013-03-17 03:24:00,
2013-03-16 23:29:00,40.4,31.7,29.94,North,0,1.3,5.1,71,0.00,,,0.00,WUHU216HW,2013-03-17 03:29:00,
2013-03-16 23:34:00,40.2,31.6,29.94,NNE,23,0.0,6.0,71,0.00,,,0.00,WUHU216HW,2013-03-17 03:34:00,
2013-03-16 23:39:00,40.2,31.6,29.94,North,0,0.0,6.0,71,0.00,,,0.00,WUHU216HW,2013-03-17 03:39:00,
2013-03-16 23:44:00,40.2,31.6,29.94,NNE,23,0.0,1.3,71,0.00,,,0.00,WUHU216HW,2013-03-17 03:44:00,
2013-03-16 23:49:00,40.2,31.6,29.94,WNW,293,10.2,10.2,71,0.00,,,0.00,WUHU216HW,2013-03-17 03:49:00,
2013-03-16 23:54:00,39.9,31.2,29.94,NNE,23,1.1,10.2,71,0.00,,,0.00,WUHU216HW,2013-03-17 03:54:00,
2013-03-16 23:59:00,39.9,31.2,29.94,North,0,0.0,10.2,71,0.00,,,0.00,WUHU216HW,2013-03-17 03:59:00,